Date,TemperatureHighF,TemperatureAvgF,TemperatureLowF,DewpointHighF,DewpointAvgF,DewpointLowF,HumidityHigh,HumidityAvg,HumidityLow,PressureMaxIn,PressureMinIn,WindSpeedMaxMPH,WindSpeedAvgMPH,GustSpeedMaxMPH,PrecipitationSumIn
2013-1-1,50,48,44,49,46,40,97,93,80,30.08,29.93,5,0,14,1.43
2013-1-2,43,40,37,41,37,35,95,90,86,30.18,30.02,8,1,14,0.00
2013-1-3,44,36,27,35,32,26,94,85,59,30.37,30.16,5,1,9,0.00
2013-1-4,48,33,24,32,26,22,95,78,37,30.44,30.34,7,1,11,0.00
2013-1-5,48,36,26,39,30,24,95,82,48,30.41,30.27,2,0,3,0.09
2013-1-6,48,40,32,40,38,30,96,90,71,30.29,30.18,5,0,10,0.05
2013-1-7,51,37,28,39,32,26,96,85,57,30.39,30.27,1,0,6,0.00
2013-1-8,57,45,33,47,40,31,94,81,64,30.35,30.24,2,0,7,0.00
2013-1-9,57,53,48,54,50,44,95,90,82,30.38,30.27,0,0,4,0.06
2013-1-10,65,59,56,62,56,52,96,92,87,30.33,30.04,7,0,13,0.05
2013-1-11,65,63,62,64,62,60,97,94,86,30.11,30.03,3,0,13,0.22
2013-1-12,71,65,61,66,62,58,98,91,78,30.07,29.94,3,0,6,0.03
2013-1-13,70,63,51,64,60,49,96,91,79,30.03,29.89,8,1,10,1.06
2013-1-14,50,43,40,49,42,38,97,95,94,30.19,30.02,6,1,14,1.37
2013-1-15,47,44,42,46,44,41,97,97,96,30.10,29.91,3,0,6,0.90
2013-1-16,48,45,42,48,44,41,97,96,94,30.03,29.90,6,0,9,0.19
2013-1-17,44,40,33,44,38,31,97,93,83,30.34,29.80,10,2,22,0.47
2013-1-18,52,36,28,39,32,27,97,85,48,30.55,30.34,7,0,8,0.01
2013-1-19,54,36,26,38,30,24,97,84,46,30.42,30.21,4,0,7,0.00
2013-1-20,60,40,28,43,34,26,97,82,46,30.23,30.11,4,0,6,0.00
2013-1-21,50,37,28,39,28,21,96,72,42,30.22,30.09,9,1,15,0.00
2013-1-22,43,33,25,25,21,17,83,64,39,30.36,30.21,6,1,12,0.00
2013-1-23,56,42,29,39,31,23,88,67,47,30.38,30.17,4,0,10,0.00
2013-1-24,50,44,35,43,30,17,88,60,29,30.32,30.16,8,1,15,0.00
2013-1-25,48,41,36,39,32,17,95,71,46,30.28,30.07,2,0,7,0.04
2013-1-26,56,43,38,41,36,30,96,78,37,30.29,30.15,5,0,10,0.01
2013-1-27,52,46,39,43,38,34,89,75,68,30.36,30.27,3,0,7,0.00
2013-1-28,62,50,43,54,44,36,94,80,70,30.33,30.18,1,0,6,0.00
2013-1-29,68,57,42,63,54,41,96,90,80,30.18,29.79,4,0,11,0.00
2013-1-30,68,56,37,65,53,28,96,90,69,29.90,29.55,10,2,18,1.96
2013-1-31,50,38,30,31,28,26,88,70,42,30.15,29.91,7,1,14,0.00
2013-2-1,40,33,24,33,20,8,86,62,29,30.41,30.12,6,1,21,0.00
2013-2-2,42,31,20,38,27,18,96,85,51,30.34,30.12,1,0,6,0.28
2013-2-3,55,42,32,41,33,26,97,74,33,30.16,30.02,13,1,17,0.00
2013-2-4,48,38,28,38,32,26,93,82,59,30.11,29.96,3,0,6,0.00
2013-2-5,57,46,39,50,43,36,94,88,77,30.02,29.93,2,0,4,0.01
2013-2-6,65,47,38,48,39,34,97,79,35,30.16,30.02,4,0,7,0.00
2013-2-7,48,46,42,46,44,39,96,93,77,30.09,29.90,1,0,6,0.37
2013-2-8,52,45,31,49,42,29,97,89,72,30.21,29.90,11,1,17,0.27
2013-2-9,58,41,28,43,34,26,96,79,45,30.29,30.16,1,0,7,0.00
2013-2-10,56,50,44,52,44,35,96,81,53,30.18,29.95,3,0,9,1.26
2013-2-11,56,52,45,55,51,44,97,96,95,30.11,29.95,1,0,4,0.14
2013-2-12,48,44,40,44,42,38,97,92,73,30.11,29.76,4,0,7,0.21
2013-2-13,47,44,36,46,41,34,97,91,80,29.99,29.67,6,1,15,0.07
2013-2-14,57,44,33,41,37,31,95,78,49,30.08,29.98,6,0,9,0.00
2013-2-15,62,44,29,44,35,28,97,75,44,30.10,29.98,6,1,15,0.00
2013-2-16,42,36,26,33,23,15,84,62,37,30.18,30.00,14,2,20,0.00
2013-2-17,49,32,19,26,20,15,92,65,31,30.30,30.18,6,0,14,0.00
2013-2-18,61,44,25,36,30,23,95,62,36,30.30,29.94,6,1,14,0.00
2013-2-19,56,46,36,46,33,20,96,65,29,30.19,29.93,11,2,17,0.36
2013-2-20,46,36,25,34,25,15,93,69,29,30.23,30.11,7,1,11,0.01
2013-2-21,57,43,30,46,33,24,95,71,34,30.16,29.84,2,0,7,1.09
2013-2-22,48,46,43,46,44,42,96,95,92,30.05,29.93,1,0,6,0.39
2013-2-23,59,47,36,52,45,35,97,91,75,29.95,29.82,3,0,7,0.45
2013-2-24,62,43,32,42,36,31,97,78,38,30.03,29.91,4,0,8,0.00
2013-2-25,59,47,37,44,38,31,94,72,54,29.93,29.58,3,0,9,0.57
2013-2-26,50,44,41,47,40,35,96,85,72,29.78,29.48,10,1,16,0.59
2013-2-27,59,48,40,38,35,32,81,64,43,29.88,29.78,14,1,16,0.00
2013-2-28,43,38,34,34,30,27,91,72,58,30.01,29.85,6,2,19,0.00
2013-3-1,41,38,34,32,30,27,85,75,68,30.03,29.96,5,1,11,0.00
2013-3-2,36,35,32,31,29,27,87,80,71,30.08,29.98,10,1,15,0.00
2013-3-3,43,33,26,26,22,18,85,67,38,30.12,30.05,9,2,16,0.00
2013-3-4,58,43,25,42,29,21,90,63,34,30.16,29.91,5,0,9,0.00
2013-3-5,63,51,36,58,45,31,92,80,67,29.97,29.64,9,2,20,0.21
2013-3-6,43,37,30,31,27,21,87,68,59,30.22,29.95,19,3,26,0.00
2013-3-7,55,38,25,35,30,23,94,75,44,30.30,30.20,7,0,10,0.00
2013-3-8,64,42,27,37,30,24,94,68,26,30.33,30.19,7,0,8,0.00
2013-3-9,64,50,34,42,35,30,87,61,36,30.24,30.06,2,0,7,0.00
2013-3-10,75,61,48,49,42,36,66,51,34,30.09,29.90,10,1,19,0.00
2013-3-11,61,53,40,54,48,37,94,82,63,29.90,29.74,7,1,11,0.94
2013-3-12,56,44,31,37,34,30,95,71,44,30.11,29.88,14,1,14,0.00
2013-3-13,52,43,31,33,27,22,93,57,33,30.31,30.10,15,2,18,0.00
2013-3-14,56,40,29,32,23,17,79,54,22,30.38,30.21,10,1,10,0.00
2013-3-15,76,52,29,47,38,27,93,64,33,30.22,29.92,7,1,17,0.00
2013-3-16,77,61,47,49,45,41,87,59,30,29.95,29.82,7,1,14,0.00
2013-3-17,70,58,45,56,50,43,96,76,49,29.94,29.81,7,0,10,0.00
2013-3-18,68,58,50,63,55,49,97,91,81,29.84,29.67,19,1,42,0.63
2013-3-19,62,51,37,52,38,30,96,65,33,30.07,29.83,7,1,13,0.00
2013-3-20,58,47,37,33,27,16,77,50,24,30.11,29.91,9,1,20,0.00
2013-3-21,48,38,30,30,21,11,83,53,26,30.02,29.89,7,1,14,0.00
2013-3-22,48,42,35,41,34,27,93,74,55,30.02,29.92,2,0,5,0.07
2013-3-23,55,48,43,50,46,42,96,92,83,29.93,29.64,3,0,9,1.28
2013-3-24,61,51,40,56,46,29,97,84,62,29.74,29.43,13,2,22,0.92
2013-3-25,41,38,33,30,26,24,78,64,51,30.09,29.74,9,2,20,0.00
2013-3-26,41,36,33,29,28,26,81,71,59,30.30,30.08,6,1,17,0.00
2013-3-27,54,39,25,32,28,23,94,68,38,30.36,30.23,8,1,12,0.00
2013-3-28,62,45,29,37,31,27,94,65,30,30.33,30.20,7,1,11,0.00
2013-3-29,70,51,31,45,36,30,94,63,29,30.27,30.10,5,0,10,0.00
2013-3-30,71,56,45,56,48,40,96,77,47,30.12,29.93,2,0,9,0.34
2013-3-31,70,60,55,59,56,54,97,87,63,29.92,29.79,7,1,11,0.45
2013-4-1,71,60,50,57,49,43,96,73,38,30.00,29.80,5,1,13,0.00
2013-4-2,62,51,40,46,37,31,93,62,35,30.14,30.00,6,1,10,0.00
2013-4-3,55,46,40,46,37,27,95,72,45,30.13,30.05,3,0,8,0.25
2013-4-4,46,44,41,44,42,40,96,95,94,30.07,29.91,6,0,7,0.95
2013-4-5,66,52,41,49,43,38,97,75,37,30.05,29.93,7,1,15,0.01
2013-4-6,75,56,35,46,41,34,97,63,30,30.12,29.98,4,0,10,0.00
2013-4-7,76,60,42,53,48,40,95,70,41,30.10,29.95,4,0,11,0.00
2013-4-8,79,61,47,59,53,46,96,77,44,30.04,29.94,4,0,10,0.00
2013-4-9,84,67,52,60,57,50,96,73,43,30.10,29.93,4,0,9,0.00
2013-4-10,84,67,52,63,57,50,97,73,43,30.00,29.80,3,0,9,0.00
2013-4-11,78,66,60,68,62,57,96,85,67,29.81,29.49,5,0,11,1.86
2013-4-12,67,55,44,60,46,40,95,73,38,29.91,29.60,9,1,17,0.00
2013-4-13,74,56,40,50,43,38,97,67,28,30.02,29.91,7,1,11,0.00
2013-4-14,58,53,44,55,49,42,95,88,71,29.96,29.79,2,0,6,0.06
2013-4-15,76,64,56,63,58,54,96,83,62,30.01,29.84,3,0,7,0.00
2013-4-16,83,70,60,68,64,58,94,82,59,30.11,30.01,1,0,8,0.00
2013-4-17,86,72,62,70,65,60,97,81,55,30.10,29.95,3,0,10,0.00
2013-4-18,82,71,60,65,61,58,96,74,49,29.95,29.69,4,0,11,0.00
2013-4-19,73,54,42,66,49,37,95,82,62,30.06,29.62,7,1,13,0.97
2013-4-20,62,48,33,40,36,31,96,68,34,30.20,30.07,5,1,12,0.00
2013-4-21,70,52,34,48,41,33,96,69,37,30.26,30.13,2,0,8,0.00
2013-4-22,71,58,48,54,47,43,91,69,46,30.21,30.04,4,0,10,0.00
2013-4-23,75,61,51,56,49,42,92,68,45,30.12,29.95,4,0,7,0.00
2013-4-24,67,57,49,63,55,46,95,90,77,30.15,29.95,10,0,11,0.28
2013-4-25,66,52,38,45,41,36,95,70,33,30.28,30.15,7,1,14,0.00
2013-4-26,76,56,36,57,44,34,96,69,32,30.31,30.15,3,0,9,0.00
2013-4-27,76,64,56,63,56,49,95,78,55,30.21,29.97,6,0,9,0.70
2013-4-28,67,60,58,66,60,57,97,96,92,29.99,29.86,10,0,10,0.51
2013-4-29,74,62,54,60,56,52,98,84,49,29.96,29.84,2,0,6,0.07
2013-4-30,79,63,47,63,55,46,97,80,45,29.96,29.86,2,0,7,0.59
2013-5-1,71,65,61,62,60,56,93,83,70,30.05,29.95,2,0,9,0.00
2013-5-2,67,62,57,61,58,54,90,85,81,30.07,29.98,3,0,7,0.00
2013-5-3,70,63,59,59,58,56,95,84,67,29.98,29.79,4,0,10,0.33
2013-5-4,59,49,45,57,48,42,96,94,91,29.88,29.76,4,0,14,2.45
2013-5-5,63,50,44,53,48,42,96,91,59,29.81,29.71,2,0,6,0.51
2013-5-6,52,50,46,52,48,45,97,96,94,29.84,29.71,0,0,4,2.08
2013-5-7,68,56,46,56,51,45,97,85,60,29.93,29.82,3,0,6,0.00
2013-5-8,77,61,47,62,55,45,97,81,52,30.00,29.91,5,0,8,0.00
2013-5-9,80,65,50,64,57,49,97,79,51,30.04,29.93,1,0,4,0.00
2013-5-10,73,64,55,63,59,53,96,84,61,29.98,29.85,2,0,5,0.00
2013-5-11,77,65,56,66,61,54,96,88,65,29.91,29.81,2,0,10,0.08
2013-5-12,66,56,44,54,44,36,96,69,34,30.06,29.90,9,1,14,0.01
2013-5-13,69,53,37,48,41,35,96,67,34,30.20,30.05,7,0,15,0.00
2013-5-14,81,62,43,60,52,41,96,73,42,30.16,30.00,1,0,6,0.00
2013-5-15,84,68,53,63,58,51,96,72,44,30.09,29.91,6,0,10,0.00
2013-5-16,81,68,58,65,60,52,95,77,40,29.97,29.87,1,0,4,0.00
2013-5-17,78,67,61,68,64,58,96,88,65,29.97,29.88,1,0,10,0.98
2013-5-18,75,69,65,72,68,64,97,95,88,29.96,29.88,2,0,7,0.45
2013-5-19,77,70,64,73,68,62,97,92,80,29.96,29.88,4,0,8,0.01
2013-5-20,80,69,59,71,65,58,97,87,68,30.00,29.89,2,0,6,0.00
2013-5-21,86,72,60,72,66,58,97,83,58,29.93,29.75,0,0,7,0.00
2013-5-22,83,72,64,71,67,63,96,85,63,29.84,29.74,4,0,5,0.08
2013-5-23,83,71,60,69,62,57,97,75,45,29.94,29.81,8,1,13,0.00
2013-5-24,74,64,52,59,54,48,93,71,42,30.15,29.93,8,1,15,0.00
2013-5-25,76,61,46,61,50,44,95,72,40,30.22,30.09,3,0,5,0.00
2013-5-26,82,65,48,63,55,47,96,74,38,30.17,30.04,2,0,5,0.00
2013-5-27,84,69,54,67,60,52,95,77,47,30.10,29.97,3,0,8,0.00
2013-5-28,84,71,57,67,62,56,96,77,50,30.06,29.95,4,0,6,0.00
2013-5-29,85,74,63,71,65,60,92,76,53,30.06,29.95,4,0,11,0.00
2013-5-30,83,73,66,72,68,63,91,82,67,30.07,29.95,6,0,8,0.00
2013-5-31,85,75,68,71,68,65,92,80,59,30.03,29.90,2,0,7,0.00
2013-6-1,85,74,66,75,69,64,95,86,67,29.94,29.84,1,0,10,0.22
2013-6-2,83,74,67,72,68,65,97,84,61,29.88,29.76,3,0,7,0.00
2013-6-3,81,72,64,70,66,61,96,82,59,29.87,29.77,5,0,11,0.01
2013-6-4,86,72,58,71,64,57,96,80,54,29.91,29.82,3,0,6,0.00
2013-6-5,80,69,65,74,67,63,96,93,81,29.88,29.75,3,0,5,1.31
2013-6-6,80,72,64,73,69,63,97,90,72,29.78,29.62,0,0,5,0.00
2013-6-7,80,70,65,72,68,64,97,93,70,29.77,29.59,3,0,10,0.79
2013-6-8,80,71,63,71,67,62,97,88,65,29.94,29.76,2,0,4,0.00
2013-6-9,81,72,66,74,69,65,97,92,72,29.95,29.82,2,0,6,0.10
2013-6-10,84,74,67,73,69,66,97,86,59,29.89,29.80,1,0,6,1.15
2013-6-11,89,79,70,77,73,68,96,84,63,29.93,29.84,5,0,8,0.00
2013-6-12,91,80,69,77,73,68,97,82,58,29.95,29.85,3,0,8,0.00
2013-6-13,89,78,70,78,73,68,97,86,68,29.85,29.65,4,0,10,0.14
2013-6-14,82,72,62,69,64,60,97,80,50,29.89,29.76,5,0,12,0.00
2013-6-15,85,71,58,71,64,57,97,81,58,29.99,29.89,1,0,6,0.00
2013-6-16,87,73,62,76,68,60,96,86,64,30.00,29.86,4,0,9,0.06
2013-6-17,84,73,69,78,71,68,96,93,78,29.91,29.81,1,0,13,0.14
2013-6-18,82,73,68,75,71,67,97,92,73,29.82,29.74,4,0,13,1.24
2013-6-19,83,73,67,73,69,66,97,87,65,29.94,29.82,7,0,10,0.01
2013-6-20,84,73,64,73,68,63,97,85,66,30.06,29.95,3,0,5,0.00
2013-6-21,84,73,64,72,68,63,97,84,58,30.11,30.00,4,0,7,0.00
2013-6-22,84,73,64,70,66,63,97,81,56,30.09,29.95,2,0,6,0.00
2013-6-23,85,73,62,73,68,61,97,85,63,30.06,29.95,3,0,9,0.00
2013-6-24,82,73,67,75,70,66,96,90,78,30.08,29.97,0,0,5,0.00
2013-6-25,84,74,69,76,72,67,96,92,76,30.03,29.90,0,0,5,0.08
2013-6-26,88,77,67,78,72,66,97,87,68,29.96,29.80,1,0,3,0.00
2013-6-27,90,78,71,80,73,68,95,85,63,29.84,29.69,4,0,7,0.01
2013-6-28,87,78,69,77,72,67,97,82,58,29.73,29.57,5,0,11,0.00
2013-6-29,87,77,68,72,68,62,96,76,44,29.60,29.54,4,0,9,0.00
2013-6-30,87,74,62,68,65,60,96,75,43,29.66,29.58,3,0,7,0.00
2013-7-1,83,72,63,72,67,61,95,86,67,29.78,29.64,3,0,7,0.01
2013-7-2,84,72,62,73,67,61,96,85,58,29.82,29.61,1,0,8,0.01
2013-7-3,75,71,68,73,70,66,96,95,91,29.74,29.66,4,0,6,0.29
2013-7-4,75,71,69,72,69,68,97,94,83,29.73,29.65,1,0,10,0.18
2013-7-5,74,71,68,72,70,67,97,96,95,29.78,29.69,0,0,4,0.40
2013-7-6,73,71,70,72,70,69,97,97,96,29.75,29.68,1,0,5,1.59
2013-7-7,81,74,70,76,72,69,98,94,81,29.77,29.70,0,0,6,0.04
2013-7-8,83,74,70,77,72,69,97,94,77,29.80,29.70,1,0,3,0.53
2013-7-9,87,76,71,78,74,70,97,91,70,29.79,29.65,1,0,5,0.05
2013-7-10,85,75,69,78,73,68,97,93,79,29.69,29.54,2,0,11,0.17
2013-7-11,84,75,69,77,72,68,97,92,77,29.62,29.46,1,0,5,0.51
2013-7-12,85,76,69,75,71,67,97,86,67,29.54,29.46,4,0,8,0.00
2013-7-13,82,73,63,75,69,62,97,89,76,29.63,29.52,2,0,9,0.00
2013-7-14,83,75,70,76,72,69,96,90,74,29.73,29.61,2,0,10,0.06
2013-7-15,84,77,72,75,72,71,95,86,71,29.83,29.73,3,0,7,0.00
2013-7-16,86,77,71,76,73,69,96,87,69,29.87,29.79,3,0,6,0.00
2013-7-17,91,77,67,79,72,66,97,85,58,29.87,29.71,5,0,7,0.00
2013-7-18,87,77,68,76,71,67,96,84,62,29.77,29.62,2,0,5,0.00
2013-7-19,89,77,67,77,72,66,97,85,61,29.69,29.53,0,0,3,0.00
2013-7-20,86,74,68,77,72,66,97,91,70,29.60,29.49,1,0,4,0.25
2013-7-21,85,74,69,77,71,68,97,93,76,29.60,29.51,0,0,13,0.30
2013-7-22,82,74,68,76,71,67,97,92,79,29.57,29.45,1,0,4,0.00
2013-7-23,72,71,68,71,70,67,97,96,93,29.59,29.44,1,0,4,1.67
2013-7-24,80,73,69,77,72,68,97,94,83,29.50,29.41,3,0,6,0.03
2013-7-25,84,74,68,71,69,66,97,84,57,29.58,29.44,4,0,8,0.00
2013-7-26,86,73,63,74,68,62,97,85,60,29.62,29.54,0,0,0,0.00
2013-7-27,82,73,66,73,69,65,96,88,67,29.54,29.47,1,0,2,0.00
2013-7-28,83,74,67,74,70,66,96,86,69,29.62,29.49,0,0,0,0.00
2013-7-29,80,70,64,69,65,62,96,85,61,29.74,29.61,0,0,0,0.00
2013-7-30,86,72,59,75,67,58,97,85,56,29.77,29.65,0,0,0,0.38
2013-7-31,79,73,69,76,71,68,97,94,88,29.70,29.51,4,0,9,0.99
2013-8-1,84,75,69,76,71,68,97,89,66,29.55,29.47,4,0,8,0.00
2013-8-2,86,74,65,75,69,63,97,86,56,29.56,29.49,3,0,4,0.00
2013-8-3,85,73,63,77,70,62,97,92,76,29.59,29.53,0,0,11,0.18
2013-8-4,85,76,69,76,73,67,97,88,69,29.59,29.51,3,0,10,0.04
2013-8-5,81,72,66,72,68,65,96,89,69,29.59,29.50,0,0,1,0.00
2013-8-6,78,72,68,76,71,67,97,95,92,29.55,29.47,0,0,0,0.16
2013-8-7,86,75,70,79,73,69,97,92,76,29.55,29.46,0,0,17,0.14
2013-8-8,84,75,68,80,73,67,97,93,82,29.55,29.48,0,0,0,0.00
2013-8-9,87,77,69,79,74,68,97,90,73,29.59,29.50,1,0,5,0.00
2013-8-10,84,74,71,78,73,70,97,94,77,29.64,29.56,1,0,13,0.21
2013-8-11,86,75,68,79,73,67,98,94,74,29.67,29.57,1,0,6,0.05
2013-8-12,87,77,70,78,74,69,97,91,67,29.62,29.50,1,0,7,0.28
2013-8-13,85,76,71,78,73,70,97,92,74,29.50,29.40,2,0,7,0.02
2013-8-14,78,72,65,72,69,64,97,90,67,29.52,29.43,3,0,9,0.00
2013-8-15,74,68,63,69,65,62,96,90,83,29.57,29.49,1,0,5,0.00
2013-8-16,69,66,64,66,64,61,94,90,86,29.61,29.53,3,0,7,0.00
2013-8-17,68,66,64,65,64,62,96,92,88,29.63,29.56,1,0,6,0.00
2013-8-18,73,69,66,71,68,65,97,96,93,29.67,29.58,0,0,5,0.34
2013-8-19,80,73,68,76,71,68,97,93,83,29.62,29.52,1,0,6,0.30
2013-8-20,79,74,70,76,72,69,97,95,87,29.65,29.56,1,0,6,0.02
2013-8-21,83,75,70,77,72,69,97,91,74,29.69,29.59,2,0,6,0.00
2013-8-22,85,75,67,77,72,66,97,91,72,29.67,29.54,1,0,5,0.00
2013-8-23,86,75,67,78,72,66,97,89,71,29.59,29.48,3,0,6,0.05
2013-8-24,82,74,67,77,71,66,98,92,80,29.72,29.54,2,0,6,0.01
2013-8-25,82,72,64,72,67,63,97,87,68,29.83,29.72,5,0,7,0.00
2013-8-26,80,68,58,69,64,57,97,86,60,29.81,29.66,3,0,7,0.00
2013-8-27,83,70,58,74,66,57,97,87,62,29.68,29.55,3,0,7,0.00
2013-8-28,85,72,63,75,68,62,97,89,64,29.58,29.50,3,0,6,0.00
2013-8-29,88,76,66,77,71,64,97,84,60,29.55,29.45,5,0,9,0.00
2013-8-30,87,75,69,79,72,68,97,93,75,29.51,29.42,1,0,7,0.54
2013-8-31,87,75,69,80,73,68,98,92,72,29.46,29.36,2,0,6,0.00
2013-9-1,82,74,69,77,72,68,97,94,85,29.43,29.35,0,0,8,0.00
2013-9-2,82,74,68,76,71,68,97,93,77,29.50,29.36,2,0,10,2.45
2013-9-3,84,75,67,76,71,65,97,87,65,29.49,29.39,5,0,7,0.00
2013-9-4,83,71,61,73,67,60,97,87,60,29.60,29.48,4,0,8,0.00
2013-9-5,83,71,61,73,67,60,97,88,61,29.64,29.56,3,0,4,0.00
2013-9-6,84,71,61,75,67,59,97,88,68,29.64,29.53,1,0,4,0.00
2013-9-7,84,72,63,74,68,62,97,88,70,29.61,29.49,1,0,4,0.00
2013-9-8,85,72,62,76,69,61,97,89,67,29.52,29.44,0,0,3,0.00
2013-9-9,86,75,66,77,71,65,97,88,68,29.57,29.48,1,0,5,0.00
2013-9-10,87,75,68,76,72,67,97,89,66,29.68,29.58,5,0,5,0.00
2013-9-11,85,73,64,75,69,63,97,87,62,29.70,29.58,1,0,7,0.00
2013-9-12,86,73,63,74,68,62,97,85,58,29.58,29.41,5,0,12,0.30
2013-9-13,81,71,59,72,64,56,97,82,49,29.44,29.35,5,0,11,0.00
2013-9-14,75,62,51,65,57,49,96,84,60,29.54,29.44,4,0,9,0.00
2013-9-15,81,66,54,71,62,53,97,87,63,29.62,29.55,1,0,6,0.00
2013-9-16,82,68,58,70,62,57,97,83,46,29.63,29.55,4,0,6,0.00
2013-9-17,80,69,60,72,65,58,97,87,73,29.66,29.57,4,0,9,0.00
2013-9-18,79,70,63,70,65,60,92,85,68,29.68,29.57,3,0,7,0.00
2013-9-19,81,69,60,70,64,58,97,85,63,29.65,29.52,1,0,5,0.00
2013-9-20,83,70,59,72,65,58,97,86,62,29.55,29.35,1,0,5,0.01
2013-9-21,73,68,60,72,67,59,97,95,91,29.34,29.23,4,0,25,1.22
2013-9-22,74,62,53,67,60,52,97,90,72,29.38,29.28,5,0,7,0.01
2013-9-23,77,64,52,68,60,51,97,87,61,29.46,29.37,4,0,6,0.00
2013-9-24,69,66,61,67,64,60,96,95,91,29.46,29.33,2,0,10,0.10
2013-9-25,71,66,64,69,65,62,97,95,91,29.35,29.28,0,0,3,0.01
2013-9-26,76,67,60,69,64,59,96,90,74,29.48,29.34,1,0,6,0.00
2013-9-27,76,64,56,65,59,55,97,86,58,29.61,29.48,5,0,7,0.00
2013-9-28,75,62,52,64,58,51,97,85,59,29.68,29.56,2,0,8,0.00
2013-9-29,73,62,52,64,58,51,96,87,63,29.61,29.48,2,0,7,0.00
2013-9-30,73,63,55,65,59,54,96,88,70,29.55,29.45,1,0,5,0.00
2013-10-1,78,66,56,69,62,55,97,89,71,29.61,29.50,2,0,7,0.00
2013-10-2,80,67,57,70,63,56,97,88,65,29.62,29.51,1,0,6,0.00
2013-10-3,80,69,62,69,65,60,97,86,57,29.58,29.49,4,0,5,0.00
2013-10-4,82,69,59,72,65,58,97,88,65,29.60,29.51,2,0,5,0.00
2013-10-5,83,70,60,72,66,59,97,87,65,29.57,29.43,1,0,6,0.00
2013-10-6,80,69,58,73,66,56,96,91,75,29.43,29.28,6,0,11,0.45
2013-10-7,69,60,53,57,54,50,96,82,55,29.48,29.34,6,1,13,0.02
2013-10-8,73,61,47,66,56,46,96,85,67,29.56,29.45,3,0,8,0.00
2013-10-9,72,64,58,63,57,52,94,80,60,29.64,29.54,2,0,7,0.00
2013-10-10,76,63,54,67,58,52,97,87,59,29.60,29.47,2,0,5,0.00
2013-10-11,77,62,51,65,57,50,97,84,54,29.54,29.44,5,0,8,0.00
2013-10-12,78,62,50,64,57,49,97,84,53,29.56,29.47,6,0,9,0.00
2013-10-13,78,64,54,66,59,52,97,85,51,29.65,29.56,3,0,8,0.00
2013-10-14,76,63,52,66,59,51,97,87,67,29.66,29.54,4,0,6,0.00
2013-10-15,69,62,56,63,59,54,97,90,80,29.58,29.47,1,0,3,0.00
2013-10-16,71,64,57,66,61,56,96,91,80,29.50,29.38,1,0,6,0.00
2013-10-17,69,65,54,67,62,52,97,92,82,29.43,29.34,4,0,10,0.12
2013-10-18,67,55,47,57,51,45,96,87,61,29.52,29.39,5,0,7,0.00
2013-10-19,68,57,49,60,54,47,96,88,67,29.46,29.37,3,0,8,0.00
2013-10-20,64,49,39,50,43,37,96,82,39,29.54,29.45,2,0,6,0.00
2013-10-21,66,49,34,55,44,33,97,85,51,29.56,29.45,1,0,5,0.00
2013-10-22,72,58,50,57,52,48,96,84,50,29.46,29.30,4,0,10,0.00
2013-10-23,58,50,37,50,42,35,95,77,48,29.54,29.31,11,1,15,0.00
2013-10-24,60,46,33,48,40,31,95,80,53,29.70,29.54,6,0,10,0.00
2013-10-25,53,42,31,39,32,28,91,71,39,29.87,29.70,10,1,11,0.00
2013-10-26,60,42,27,43,34,25,95,77,42,29.77,29.60,5,0,7,0.00
2013-10-27,64,51,39,55,47,37,95,86,68,29.59,29.52,3,0,4,0.02
2013-10-28,63,56,51,60,55,50,97,95,87,29.67,29.55,1,0,3,0.08
2013-10-29,72,60,52,65,57,51,97,91,73,29.71,29.61,2,0,4,0.00
2013-10-30,75,62,53,63,57,52,97,86,60,29.69,29.52,5,0,9,0.00
2013-10-31,74,66,58,67,62,56,95,87,78,29.52,29.16,5,0,13,0.09
2013-11-1,72,62,48,66,56,46,96,84,48,29.26,29.13,4,0,10,0.61
2013-11-2,65,53,42,53,44,37,97,74,37,29.51,29.25,7,1,14,0.00
2013-11-3,61,47,36,47,40,34,96,80,45,29.69,29.51,5,0,10,0.00
2013-11-4,65,50,36,47,41,34,96,75,41,29.79,29.69,3,0,12,0.00
2013-11-5,62,52,45,49,43,39,80,70,53,29.82,29.67,2,0,8,0.00
2013-11-6,71,61,49,61,56,44,92,82,69,29.66,29.45,7,0,9,0.01
2013-11-7,62,51,38,60,45,33,96,79,50,29.68,29.43,12,1,18,0.38
2013-11-8,58,42,31,40,34,28,95,75,33,29.77,29.64,3,0,7,0.00
2013-11-9,57,45,33,47,39,31,95,82,53,29.73,29.60,0,0,5,0.00
2013-11-10,69,52,40,49,44,37,92,76,40,29.70,29.60,6,0,10,0.00
2013-11-11,65,46,32,42,37,30,96,74,33,29.70,29.55,2,0,4,0.00
2013-11-12,54,40,30,45,32,17,95,72,50,29.90,29.55,20,2,20,0.00
2013-11-13,49,33,22,25,20,13,87,65,25,30.02,29.86,6,0,10,0.00
2013-11-14,56,35,20,31,24,17,93,71,29,29.89,29.66,1,0,7,0.00
2013-11-15,55,45,32,50,41,27,96,87,67,29.66,29.49,1,0,3,0.14
2013-11-16,64,56,48,60,54,47,97,91,83,29.57,29.44,3,0,8,0.00
2013-11-17,68,65,58,68,63,56,97,94,89,29.44,29.25,8,0,11,0.15
2013-11-18,68,58,46,68,47,32,97,71,29,29.51,29.28,8,1,14,0.01
2013-11-19,56,45,35,38,33,27,86,65,34,29.59,29.48,4,0,12,0.00
2013-11-20,59,48,33,42,37,31,91,68,48,29.67,29.54,6,0,10,0.00
2013-11-21,64,56,51,55,48,40,82,74,64,29.56,29.56,2,0,5,0.00
2013-11-22,64,58,53,59,54,49,96,88,80,29.58,29.56,2,0,11,0.04
2013-11-23,56,48,36,54,41,23,94,79,55,29.57,29.57,10,2,15,0.00
2013-11-24,43,33,27,25,18,11,75,55,29,29.57,29.57,8,1,14,0.00
2013-11-25,42,36,27,35,25,17,94,66,41,29.57,29.57,2,0,8,0.82
2013-11-26,46,40,35,45,39,34,96,95,91,29.57,29.15,7,1,17,2.59
2013-11-27,38,33,24,35,25,18,92,72,56,29.79,29.22,12,2,23,0.01
2013-11-28,45,29,18,29,21,15,90,74,38,29.92,29.79,3,0,5,0.00
2013-11-29,55,34,20,34,25,18,94,76,27,30.00,29.88,3,0,5,0.00
2013-11-30,54,38,26,38,31,25,95,78,44,29.96,29.75,3,0,7,0.00
2013-12-1,54,42,29,43,36,27,94,82,59,29.74,29.65,2,0,6,0.00
2013-12-2,53,48,45,51,47,42,97,95,89,29.65,29.24,1,0,3,0.43
2013-12-3,58,54,49,56,53,48,97,96,93,29.24,29.24,4,0,4,0.04
2013-12-4,71,63,57,65,61,56,98,93,79,29.24,29.24,4,0,11,0.00
2013-12-5,72,67,64,69,66,63,97,96,89,29.24,29.24,4,0,7,0.15
2013-12-6,72,58,40,69,56,39,98,94,85,29.54,29.24,7,1,16,0.59
2013-12-7,40,39,36,38,36,34,92,89,84,29.62,29.55,9,2,19,0.00
2013-12-8,49,45,39,49,44,37,97,96,92,29.62,29.46,1,0,5,2.06
2013-12-9,52,48,45,50,47,44,97,95,90,29.52,29.36,2,0,7,0.27
2013-12-10,46,37,28,45,34,26,97,89,71,29.74,29.37,8,1,16,0.26
2013-12-11,51,34,24,39,30,22,96,84,46,29.84,29.73,2,0,6,0.00
2013-12-12,43,32,26,30,24,16,90,73,35,29.95,29.82,6,1,13,0.00
2013-12-13,49,36,22,36,28,20,94,76,45,29.82,29.54,1,0,5,0.00
2013-12-14,54,48,40,53,46,36,97,92,72,29.54,29.37,9,0,17,0.50
2013-12-15,41,36,32,38,32,29,90,85,78,29.58,29.37,8,2,14,0.00
2013-12-16,55,37,30,38,32,28,94,82,45,29.58,29.58,5,0,7,0.00
2013-12-17,60,43,28,43,35,26,97,78,47,29.58,29.49,5,1,13,0.00
2013-12-18,53,37,27,35,28,23,95,75,32,29.49,29.49,5,0,7,0.00
2013-12-19,58,39,26,37,31,24,95,78,37,29.49,29.49,3,0,5,0.00
2013-12-20,66,53,36,58,47,34,92,81,61,29.49,29.41,5,0,6,0.00
2013-12-21,71,64,56,67,62,55,97,92,85,29.41,29.16,5,0,17,0.13
2013-12-22,69,57,53,66,55,53,97,96,86,29.42,29.14,9,0,18,2.31
2013-12-23,53,42,31,53,39,28,97,88,77,29.66,29.37,8,2,15,0.07
2013-12-24,37,30,23,28,24,21,91,80,55,29.89,29.66,8,1,16,0.00
2013-12-25,46,31,20,34,25,18,95,82,53,29.89,29.89,1,0,7,0.00
2013-12-26,51,35,25,36,29,24,96,82,49,29.89,29.89,6,0,8,0.00
2013-12-27,51,34,24,35,29,23,96,82,46,29.89,29.89,2,0,7,0.00
2013-12-28,41,38,32,39,36,30,96,92,75,29.89,29.89,3,0,9,1.27
2013-12-29,49,42,36,45,40,34,97,94,86,29.89,29.89,3,0,6,0.12
2013-12-30,46,41,36,41,38,35,97,90,81,29.89,29.89,4,0,7,0.01
2013-12-31,44,36,30,35,31,28,94,83,59,29.89,29.69,4,0,11,0.00
2014-1-1,50,38,28,41,34,27,95,85,64,29.69,29.69,3,0,6,0.00
2014-1-2,49,39,24,49,35,14,97,86,64,29.69,29.69,20,2,24,0.36